{"data":{"norad_id":46347,"epoch":"2026-07-07T03:28:52.326912Z","epoch_age_seconds":6532548,"freshness":"OLD","line1":"1 46347U 20062Y   26188.14505008  .07419284  12229-4  90697-3 0  9991","line2":"2 46347  53.0125  38.4928 0010073 268.4308  91.5582 16.35330527324563","mean_motion":16.35330527,"eccentricity":0.0010073,"inclination_deg":53.0125,"raan_deg":38.4928,"arg_perigee_deg":268.4308,"mean_anomaly_deg":91.5582,"bstar":0.00090697,"rev_number":32456,"period_min":88.055593424387,"perigee_km":171.64924383821,"apogee_km":184.85774813142,"semimajor_km":6556.3904959848,"source":"CELESTRAK","updated_at":"2026-07-08T09:00:51.970124Z"}}